Location: Chrome
(40.5765°N, 74.2163°W)
Time: 17:19:49
(UTC+00:00)

BREEZE-M R/B - Pass Details

Date: 06 December 2019
Orbit: 309 x 4546 km, 49.7° (Epoch: 25 January)

Event Time Altitude Azimuth Distance (km) Brightness Sun altitude
Rises 22:33:34 0° 274° (W) 4,363 8.7 -11.8°
Reaches altitude 10° 22:37:49 10° 286° (WNW) 2,695 7.2 -12.6°
Maximum altitude 22:42:36 26° 342° (NNW) 1,217 4.6 -13.5°
Enters shadow 22:44:39 16° 29° (NNE) 1,351 4.4 -13.8°
